Starlink 32330

operational
NORAD ID: 61850 Int'l Des: 2024-202 Owner: SPXS Country: US Constellation: starlink
LEOCIRCULAR

About Starlink 32330

Description loading...

Live Position

Loading 3D Globe...

Upcoming Passes

Altitude History

Altitude vs Time

uPlot chart will show altitude changes over time

Two-Line Element Set

1 61850U 24202F 25351.70706901 .00000251 00000-0 18660-4 0 9999
2 61850 43.0051 340.6267 0001371 251.0219 109.0484 15.27581824 62800
Epoch: Dec 17, 2025 • Age: 13 hours

Current Status

Altitude 482.4 km
Velocity 7.63 km/s
Sub-Earth Point 17.22°N, 41.84°W
Launch Date Nov 7, 2024
Age 1.1 years
Type internet

Technical Details

Classification Payload
Mass 730.00 kg
Dry Mass 700.00 kg
Total Mass 730.00 kg
Length 0.30 m
Diameter 4.10 m
Span 29.00 m
Shape Box + pan
Manufacturer SPXS
Bus Type Starlink V2M
Phase Status In Orbit
Owner/State SPXS/US

Large Constellations

Loading constellations...